QPF
0.00 0.00 0.00 0.00 0.00 0.00 0.00 0.00 0.00 0.00 0.00 0.00 0.00 0.00 0.00 0.00 0.00 0.00 0.00 0.00 0.00 0.00
0.00 0.00 0.00 0.00 0.00 0.00 0.00 0.00 0.00 0.00 0.00 0.00 0.00 0.00 0.00 0.00 0.00 0.00 0.00 0.00 0.00 0.00
0.00 0.00 0.00 0.00 0.00 0.00 0.00 0.00 0.00 0.00 0.00 0.00 0.00 0.00 0.00 0.00 0.00 0.00 0.00 0.00 0.00 0.00
0.00 0.00 0.00 0.00 0.00 0.00 0.00 0.00 0.00 0.00 0.00 0.00 0.00 0.00 0.00 0.00 0.00 0.00 0.00 0.00 0.00 0.00
0.00 0.00 0.00 0.00 0.00 0.00 0.00 0.00 0.00 0.00 0.00 0.00 0.00 0.00 0.00 0.00 0.00 0.00 0.00 0.00 0.00 0.00
0.00 0.00 0.00 0.00 0.00 0.00 0.00 0.00 0.00 0.00 0.00 0.00 0.00 0.00 0.00 0.00 0.00 0.00 0.00 0.00 0.00 0.00
0.00 0.00 0.00 0.00 0.00 0.00 0.00 0.00 0.00 0.00 0.00 0.00 0.00 0.00 0.00 0.00 0.00 0.00 0.00 0.00 0.00 0.00
0.00 0.00 0.00 0.00 0.00 0.00 0.00 0.00 0.00 0.00 0.00 0.00 0.00 0.00 0.00 0.00 0.00 0.00 0.00 0.00 0.00 0.00
0.00 0.00 0.00 0.00 0.00 0.00 0.00 0.00 0.00 0.00 0.00 0.00 0.00 0.00 0.00 0.00 0.00 0.00 0.00 0.00 0.00 0.00
0.00 0.00 0.00 0.00 0.00 0.00 0.00 0.00 0.00 0.00 0.00 0.00 0.00 0.00 0.00 0.00 0.00 0.00 0.00 0.00 0.00 0.00
0.00 0.00 0.00 0.00 0.00 0.00 0.00 0.00 0.00 0.00 0.00 0.00 0.00 0.00 0.00 0.00 0.00 0.00 0.00 0.00 0.00 0.00
0.00 0.00 0.00 0.00 0.00 0.00 0.00 0.00 0.00 0.00 0.00 0.00 0.00 0.00 0.00 0.00 0.00 0.00 0.00 0.00 0.00 0.00
0.00 0.00 0.00 0.00 0.00 0.00 0.00 0.00 0.00 0.00 0.00 0.00 0.00 0.00 0.00 0.00 0.00 0.00 0.00 0.00 0.00 0.00
0.00 0.00 0.00 0.00 0.00 0.00 0.00 0.00 0.00 0.00 0.00 0.00 0.00 0.00 0.00 0.00 0.00 0.00 0.00 0.00 0.00 0.00
MSLP
1020.93 1021.11 1021.30 1021.40 1021.42 1021.35 1021.15 1020.90 1020.54 1020.41 1020.30 1020.30 1020.29 1020.38 1020.55 1020.98 1021.06 1021.09 1021.21 1021.29 1021.44 1021.35
1020.85 1020.96 1021.12 1021.25 1021.21 1021.06 1020.87 1020.56 1020.22 1020.21 1020.09 1019.89 1019.89 1020.01 1020.19 1020.43 1020.51 1020.62 1020.75 1020.80 1020.93 1021.00
1020.90 1021.02 1021.04 1021.00 1020.93 1020.80 1020.60 1020.35 1020.30 1020.19 1020.02 1019.92 1019.78 1019.76 1019.93 1020.10 1020.18 1020.36 1020.32 1020.42 1020.54 1020.56
1020.90 1020.88 1020.87 1020.86 1020.80 1020.71 1020.57 1020.40 1020.22 1020.04 1019.86 1019.76 1019.71 1019.65 1019.70 1019.72 1019.80 1019.97 1019.98 1019.93 1020.10 1020.14
1020.87 1020.86 1020.87 1020.87 1020.84 1020.74 1020.59 1020.39 1020.22 1020.05 1019.92 1019.62 1019.43 1019.45 1019.43 1019.40 1019.39 1019.47 1019.65 1019.49 1019.60 1019.62
1020.89 1020.97 1020.99 1020.94 1020.88 1020.78 1020.71 1020.47 1020.18 1019.95 1019.91 1019.67 1019.66 1019.45 1019.27 1019.16 1019.11 1019.03 1019.06 1018.99 1019.04 1018.96
1020.77 1020.74 1020.80 1020.75 1020.71 1020.61 1020.53 1020.36 1020.08 1020.01 1019.95 1019.78 1019.68 1019.36 1019.16 1019.04 1018.90 1018.88 1018.82 1018.77 1018.63 1018.46
1020.45 1020.45 1020.52 1020.56 1020.51 1020.52 1020.49 1020.38 1020.17 1020.01 1019.84 1019.65 1019.36 1019.14 1018.99 1018.84 1018.73 1018.75 1018.65 1018.49 1018.28 1017.96
1020.41 1020.45 1020.44 1020.41 1020.46 1020.48 1020.43 1020.22 1020.05 1019.88 1019.70 1019.50 1019.34 1019.16 1018.92 1018.72 1018.63 1018.61 1018.61 1018.31 1017.92 1017.57
1020.37 1020.45 1020.38 1020.36 1020.34 1020.25 1020.03 1019.94 1019.90 1019.80 1019.65 1019.31 1018.99 1018.75 1018.47 1018.37 1018.26 1018.23 1018.16 1017.97 1017.65 1017.19
1020.09 1020.23 1020.11 1020.14 1020.15 1020.15 1019.94 1019.85 1019.74 1019.46 1019.22 1019.14 1018.84 1018.50 1018.13 1017.79 1017.75 1017.70 1017.54 1017.33 1017.06 1016.73
1019.86 1020.07 1020.08 1020.17 1020.15 1019.93 1019.77 1019.62 1019.43 1019.08 1018.78 1018.47 1018.12 1017.94 1017.66 1017.46 1017.21 1017.17 1016.93 1016.81 1016.54 1016.30
1019.63 1019.67 1019.74 1019.71 1019.59 1019.52 1019.34 1019.19 1018.98 1018.57 1018.24 1018.02 1017.55 1017.01 1017.04 1016.95 1016.90 1016.96 1016.75 1016.50 1016.11 1015.89
1019.33 1019.47 1019.31 1019.19 1019.08 1019.09 1019.09 1018.95 1018.65 1018.38 1017.84 1017.47 1017.14 1016.69 1016.42 1016.34 1016.35 1016.52 1016.45 1016.20 1015.90 1015.59
Thickness
5612 5608 5605 5601 5597 5594 5592 5590 5589 5587 5584 5580 5575 5569 5564 5557 5552 5548 5544 5541 5536 5534
5603 5599 5594 5590 5587 5585 5582 5580 5578 5575 5572 5570 5565 5560 5555 5549 5544 5540 5535 5532 5528 5524
5590 5587 5583 5581 5577 5574 5571 5569 5565 5562 5559 5555 5553 5549 5545 5539 5535 5530 5527 5523 5518 5514
5578 5575 5571 5567 5563 5560 5557 5554 5551 5548 5546 5543 5540 5537 5533 5529 5525 5520 5516 5513 5508 5503
5564 5561 5556 5552 5548 5545 5541 5538 5535 5533 5530 5530 5528 5524 5521 5517 5514 5509 5503 5501 5497 5492
5549 5544 5539 5535 5532 5528 5524 5522 5520 5518 5514 5513 5510 5508 5506 5504 5500 5498 5493 5491 5486 5482
5536 5532 5526 5522 5518 5515 5511 5508 5506 5502 5499 5496 5493 5493 5491 5489 5486 5483 5480 5477 5474 5471
5524 5520 5515 5510 5506 5501 5496 5492 5490 5487 5483 5480 5479 5478 5476 5473 5471 5468 5465 5462 5461 5460
5509 5503 5498 5494 5488 5483 5478 5476 5473 5470 5467 5464 5462 5461 5461 5459 5456 5452 5449 5449 5448 5448
5491 5484 5480 5475 5470 5467 5464 5461 5456 5453 5451 5450 5449 5449 5449 5447 5444 5440 5437 5436 5434 5434
5474 5468 5463 5459 5455 5451 5449 5446 5443 5441 5438 5435 5433 5434 5435 5435 5432 5430 5426 5425 5423 5421
5458 5452 5447 5442 5439 5437 5435 5431 5429 5427 5426 5425 5423 5421 5422 5421 5420 5417 5415 5412 5409 5406
5444 5440 5435 5432 5428 5425 5422 5420 5417 5416 5415 5413 5413 5412 5410 5407 5404 5400 5398 5394 5394 5392
5430 5426 5423 5420 5416 5413 5409 5406 5404 5403 5401 5399 5398 5397 5395 5393 5388 5383 5381 5378 5376 5375